Regional Weather Roundup
Issued by NWS

Home | Current Version | Previous Version | Text Only | Print | Product List | Glossary Off
Versions: 1 2 3 4 5 6 7 8 9 10 11 12 13 14 15 16 17 18 19 20 21 22 23 24 25 26 27 28 29 30 31 32 33 34 35 36 37 38 39 40 41 42 43 44 45 46 47 48 49 50

000
ASUS43 KMPX 010201
RWRMN
WEATHER ROUNDUP FOR MINNESOTA
NATIONAL WEATHER SERVICE TWIN CITIES/CHANHASSEN MN
900 PM CDT FRI SEP 30 2016


NOTE: "FAIR" INDICATES FEW OR NO CLOUDS BELOW 12,000 FEET WITH NO
SIGNIFICANT WEATHER AND/OR OBSTRUCTIONS TO VISIBILITY. N/A MEANS
CURRENT SKY AND/OR WEATHER CONDITIONS ARE NOT AVAILABLE.

MNZ060>063-068>070-010300-
   Twin Cities Metro

CITY           SKY/WX    TMP DP  RH WIND       PRES   REMARKS
TWIN CITIES    MOCLDY    65  51  60 NE10      30.21S
ST PAUL        PTCLDY    63  52  67 NE9       30.22S
CRYSTAL        CLEAR     61  50  67 NE8       30.21S
BLAINE         CLEAR     61  54  77 NE6       30.22S
LAKEVILLE      CLOUDY    61  52  72 CALM      30.20F
EDEN PRAIRIE   CLEAR     61  51  70 N5        30.20S
LAKEVILLE      CLOUDY    61  52  72 CALM      30.20F
SOUTH ST PAUL  PTCLDY    63  51  66 N5        30.20S
LAKE ELMO      FAIR      59  52  77 N6        30.22S
$$
MNZ001>005-007-008-013>017-022>024-027-028-010300-
   Northwest Minnesota

CITY           SKY/WX    TMP DP  RH WIND       PRES   REMARKS
BEMIDJI        FOG       47  47 100 E3        30.26S VSB 1/4
HALLOCK        PTCLDY    61  54  77 SE15      30.18F
ROSEAU         PTCLDY    54  48  82 SE5       30.24F
WARROAD        PTCLDY    54  48  82 E7        30.26F
THIEF RVR FALL CLEAR     55  51  86 SE12      30.24S
CROOKSTON      PTCLDY    55  48  76 SE9       30.21F
FOSSTON        CLOUDY    50  45  81 E5        30.24F
DETROIT LAKES  CLOUDY    59  50  72 SE7       30.24F
MOORHEAD       PTCLDY    57  50  77 SE8       30.20F
PARK RAPIDS    CLEAR     54  48  80 NE6       30.25F
MAHNOMEN       FAIR      54  48  80 SE6       30.23F
$$
MNZ006-009>011-018-025>026-010300-
   North Central Minnesota

CITY           SKY/WX    TMP DP  RH WIND       PRES   REMARKS
BAUDETTE       CLOUDY    50  48  93 E7        30.28
FLAG ISLAND    PTCLDY    54  52  94 SE10      30.26S
INTL FALLS     CLEAR     43  42  97 CALM      30.29F
WASKISH        CLOUDY    50  48  93 E3        30.27S
BIG FORK       CLEAR     46  45  93 CALM      30.28F
GRAND RAPIDS   CLEAR     55  48  77 SE3       30.30S
ORR            CLEAR     52  48  87 CALM      30.28S
COOK           CLEAR     52  46  82 CALM      30.30S
WALKER         FAIR      47  47  99 CALM      30.26S FOG
$$
MNZ012-019>021-037-010300-
   Northeast Minnesota

CITY           SKY/WX    TMP DP  RH WIND       PRES   REMARKS
DULUTH         CLOUDY    51  51 100 E12       30.29S FOG
ELY            CLEAR     48  46  93 CALM      30.32S
HIBBING        CLEAR     50  46  86 SE7       30.29F
EVELETH        CLEAR     50  48  92 CALM      30.31F
DULUTH HARBOR  CLOUDY    54  52  94 NE16      30.31S
TWO HARBORS    CLOUDY    54  48  82 CALM      30.29F
SILVER BAY     CLEAR     52  50  93 N3        30.29F
GRAND MARAIS     N/A     57  48  72 NE5       30.31F
G MARAIS ARPRT CLEAR     48  39  71 N6        30.34S
$$
MNZ029>031-032-039>041-046>048-054>057-064-010300-
   West Central Minnesota

CITY           SKY/WX    TMP DP  RH WIND       PRES   REMARKS
FERGUS FALLS   PTCLDY    61  46  59 E6        30.24R
MORRIS         CLOUDY    52  46  82 E5        30.21R
ALEXANDRIA     CLEAR     56  51  84 E8        30.24S
ELBOW LAKE     FAIR      57  50  77 SE8       30.22S
WADENA         CLEAR     54  48  82 E6        30.23F
GLENWOOD       CLEAR     52  48  87 NE8       30.23S
BENSON         CLEAR     55  46  71 E5        30.21S
ORTONVILLE     PTCLDY    57  46  67 CALM      30.19S
MADISON        PTCLDY    57  46  67 E6        30.20R
WILLMAR        FAIR      57  48  72 E3        30.23S
$$
MNZ033>034-036-042>043-049>051-058-059-010300-
   Central Minnesota

CITY           SKY/WX    TMP DP  RH WIND       PRES   REMARKS
ST CLOUD       CLEAR     58  53  84 E8        30.23S
SAUK CENTRE    FAIR      53  47  80 CALM      30.23S
PAYNESVILLE    CLEAR     55  48  78 E3        30.23S
AITKIN         CLEAR     52  46  82 NE3       30.26S
PINE RIVER     CLEAR     55  46  71 E3        30.28F
BRAINERD       CLEAR     54  47  77 E6        30.26S
STAPLES        CLEAR     54  48  82 CALM      30.24F
LONG PRAIRIE   FAIR      52  48  87 CALM      30.24S
LITTLE FALLS   CLEAR     55  46  71 E5        30.24S
LITCHFIELD     CLEAR     57  52  82 CALM      30.23R
BUFFALO        CLEAR     59  49  71 NE7       30.23S
MAPLE LAKE     CLEAR     54  53  94 NE6       30.23S
HUTCHINSON     PTCLDY    55  51  87 CALM      30.23R
$$
MNZ037-044-045-052-053-010300-
   East Central Minnesota

CITY           SKY/WX    TMP DP  RH WIND       PRES   REMARKS
PRINCETON      CLEAR     57  54  88 N3        30.25R
MORA           CLEAR     50  46  87 NE3       30.28R
CAMBRIDGE      CLEAR     59  48  67 NE5       30.23S
MOOSE LAKE     CLOUDY    52  50  93 NE5       30.27R
HINCKLEY       CLOUDY    54  52  94 NE5       30.27S
CLOQUET        CLOUDY    52  50  93 E7        30.29S
MCGREGOR       MOCLDY    50  50 100 E8        30.28F
$$
MNZ071>073-080-081-089-090-097-098-010300-
   Southwest Minnesota

CITY           SKY/WX    TMP DP  RH WIND       PRES   REMARKS
MONTEVIDEO     CLEAR     55  45  67 SE7       30.22S
GRANITE FALLS  CLEAR     60  48  64 E5        30.21S
CANBY          CLEAR     53  48  82 CALM      30.21R
MARSHALL       CLEAR     56  47  71 SE5       30.20R
REDWOOD FALLS  CLEAR     61  48  62 E7        30.20S
OLIVIA         CLEAR     59  46  63 E3        30.20S
PIPESTONE      CLOUDY    55  45  67 E3        30.19S
WINDOM         CLEAR     57  50  77 NE3       30.20S
WORTHINGTON    CLEAR     56  49  77 E6        30.20S
JACKSON        CLOUDY    63  50  63 E6        30.20S
TRACY          CLEAR     55  49  81 CALM      30.20S
$$
MNZ065>067-074>077-082>085-091>093-010300-
   South Central Minnesota

CITY           SKY/WX    TMP DP  RH WIND       PRES   REMARKS
MANKATO        CLOUDY    62  53  72 N8        30.20F
NEW ULM        CLEAR     63  50  63 E3        30.20F
ST JAMES       CLOUDY    61  54  77 NE3       30.21S
FAIRMONT       CLOUDY    64  53  67 NE6       30.19F
GLENCOE        CLEAR     56  53  91 CALM      30.21S
FARIBAULT      CLOUDY    61  55  82 CALM      30.21S
OWATONNA       CLOUDY    63  52  67 CALM      30.20S
WASECA         CLOUDY    63  52  67 NE5       30.21S
ALBERT LEA     CLOUDY    64  54  68 CALM      30.19F
$$
MNZ078>079-086>088-094>096-010300-
   Southeast Minnesota

CITY           SKY/WX    TMP DP  RH WIND       PRES   REMARKS
ROCHESTER      CLOUDY    62  56  80 SE3       30.20F
RED WING       MOCLDY    63  54  72 CALM      30.18S
DODGE CENTER   CLOUDY    63  54  72 CALM      30.19F
WINONA         CLOUDY    61  55  82 CALM      30.18F
AUSTIN         CLOUDY    63  54  72 CALM      30.19S
PRESTON        CLOUDY    60  54  80 E3        30.19F
$$
ABBREVIATIONS USED IN REMARKS
   TC - TEMPERATURES IN CELSIUS
  WCI - WIND CHILL INDEX
   HX - HEAT INDEX
  VSB - VISIBILITY
$$




USA.gov is the U.S. government's official web portal to all federal, state and local government web resources and services.